Retour au catalogue

STARLINK-32627

ActifCommunicationsVLEO
NORAD 62315·PAYLOAD·🇺🇸 United States

Lancé Dec 13, 2024 depuis Vandenberg Space Force Base

Loading…

Prochains Passages (prochaines 24 heures)

TLE

FraisSource: CelesTrak SupGP

Époque: Sep 14, 2026, 20:33 UTC

1 62315C 24239Q   26257.85673611  .00042051  00000+0  12432-2 0  2578
2 62315  53.1605  32.2683 0000974  65.2956  82.9733 15.34350124    17

Suivez STARLINK-32627 en temps réel avec AllMySat

Download on the App Store